| time (UTC) | temp F | wind direction | speed knots | gust knots | rain 1hr in | rain 24hr in | rain mn in | humidity % | barometer mb |
| 20260510224529 | 54 | 110 | 4.3 | 12.2 | 0.00 | 0.00 | 0.00 | 63 | 1009.3 |
| 20260510223023 | 55 | 91 | 3.5 | 13.0 | 0.00 | 0.00 | 0.00 | 59 | 1009.1 |
| 20260510221528 | 56 | 127 | 5.2 | 12.2 | 0.00 | 0.00 | 0.00 | 56 | 1008.9 |
| 20260510220019 | 58 | 73 | 1.7 | 15.6 | 0.00 | 0.00 | 0.00 | 54 | 1009.0 |
| 20260510214517 | 61 | 127 | 5.2 | 9.6 | 0.00 | 0.00 | 0.00 | 48 | 1009.4 |
| 20260510213015 | 59 | 168 | 1.7 | 7.0 | 0.00 | 0.00 | 0.00 | 50 | 1009.2 |
| 20260510211518 | 62 | 116 | 7.0 | 15.6 | 0.00 | 0.00 | 0.00 | 45 | 1009.3 |
| 20260510210115 | 61 | 215 | 3.5 | 7.8 | 0.00 | 0.00 | 0.00 | 45 | 1009.2 |
| 20260510204515 | 61 | 314 | 2.6 | 5.2 | 0.00 | 0.00 | 0.00 | 27 | 1009.7 |
| 20260510203017 | 63 | 65 | 1.7 | 9.6 | 0.00 | 0.00 | 0.00 | 38 | 1009.9 |
| 20260510201510 | 63 | 13 | 4.3 | 9.6 | 0.00 | 0.00 | 0.00 | 26 | 1009.4 |
| 20260510200006 | 60 | 8 | 0.0 | 5.2 | 0.00 | 0.00 | 0.00 | 30 | 1009.5 |
| 20260510194505 | 58 | 191 | 0.9 | 5.2 | 0.00 | 0.00 | 0.00 | 42 | 1009.6 |
| 20260510193003 | 55 | 186 | 2.6 | 7.0 | 0.00 | 0.00 | 0.00 | 50 | 1009.8 |
| 20260510191504 | 55 | 264 | 1.7 | 4.3 | 0.00 | 0.00 | 0.00 | 50 | 1009.8 |
| 20260510190115 | 56 | 140 | 4.3 | 7.0 | 0.00 | 0.00 | 0.00 | 48 | 1009.8 |
| 20260510184605 | 58 | 87 | 0.0 | 5.2 | 0.00 | 0.00 | 0.00 | 43 | 1009.8 |
| 20260510183058 | 58 | 344 | 0.0 | 3.5 | 0.00 | 0.00 | 0.00 | 31 | 1009.7 |
| 20260510181557 | 56 | 335 | 0.0 | 4.3 | 0.00 | 0.00 | 0.00 | 33 | 1009.7 |
| 20260510180100 | 57 | 327 | 3.5 | 7.0 | 0.00 | 0.00 | 0.00 | 30 | 1009.7 |
| 20260510174603 | 57 | 356 | 0.9 | 7.8 | 0.00 | 0.00 | 0.00 | 32 | 1009.5 |
| 20260510173056 | 59 | 359 | 2.6 | 5.2 | 0.00 | 0.00 | 0.00 | 31 | 1009.3 |
| 20260510171550 | 59 | 354 | 4.3 | 7.0 | 0.00 | 0.00 | 0.00 | 33 | 1009.1 |
| 20260510170049 | 58 | 1 | 0.0 | 2.6 | 0.00 | 0.00 | 0.00 | 38 | 1009.1 |
| 20260510164554 | 56 | 141 | 0.9 | 4.3 | 0.00 | 0.00 | 0.00 | 39 | 1009.0 |
| 20260510163046 | 58 | 19 | 2.6 | 5.2 | 0.00 | 0.00 | 0.00 | 35 | 1008.7 |
| 20260510161541 | 58 | 23 | 1.7 | 9.6 | 0.00 | 0.00 | 0.00 | 35 | 1008.2 |
| 20260510160040 | 59 | 77 | 1.7 | 7.0 | 0.00 | 0.00 | 0.00 | 34 | 1008.1 |
| 20260510154541 | 59 | 86 | 1.7 | 12.2 | 0.00 | 0.00 | 0.00 | 36 | 1008.1 |
| 20260510153037 | 59 | 115 | 2.6 | 7.0 | 0.00 | 0.00 | 0.00 | 33 | 1008.1 |
| 20260510151541 | 59 | 106 | 1.7 | 7.8 | 0.00 | 0.00 | 0.00 | 32 | 1007.9 |
| 20260510150039 | 58 | 68 | 1.7 | 4.3 | 0.00 | 0.00 | 0.00 | 31 | 1008.0 |
| 20260510144546 | 58 | 41 | 1.7 | 6.1 | 0.00 | 0.00 | 0.00 | 30 | 1007.8 |
| 20260510143032 | 59 | 49 | 0.9 | 4.3 | 0.00 | 0.00 | 0.00 | 28 | 1007.4 |
| 20260510141528 | 56 | 8 | 0.0 | 0.9 | 0.00 | 0.00 | 0.00 | 34 | 1007.7 |
| 20260510140026 | 53 | 51 | 0.0 | 6.1 | 0.00 | 0.00 | 0.00 | 35 | 1007.5 |
| 20260510134526 | 54 | 84 | 0.0 | 2.6 | 0.00 | 0.00 | 0.00 | 32 | 1007.5 |
| 20260510133022 | 53 | 93 | 0.0 | 0.0 | 0.00 | 0.00 | 0.00 | 34 | 1007.8 |
| 20260510131520 | 52 | 93 | 0.0 | 4.3 | 0.00 | 0.00 | 0.00 | 31 | 1007.5 |
| 20260510130022 | 52 | 342 | 0.0 | 0.0 | 0.00 | 0.00 | 0.00 | 30 | 1007.0 |
| 20260510124516 | 52 | 18 | 0.0 | 4.3 | 0.00 | 0.00 | 0.00 | 30 | 1006.9 |
| 20260510123016 | 50 | 37 | 0.0 | 1.7 | 0.00 | 0.00 | 0.00 | 31 | 1006.9 |
| 20260510121513 | 47 | 2 | 0.0 | 0.0 | 0.00 | 0.00 | 0.00 | 34 | 1006.7 |
| 20260510120010 | 47 | 290 | 0.0 | 0.0 | 0.00 | 0.00 | 0.00 | 35 | 1006.5 |
| 20260510114506 | 49 | 320 | 0.0 | 0.0 | 0.00 | 0.00 | 0.00 | 34 | 1006.6 |
| 20260510113002 | 50 | 320 | 0.0 | 0.9 | 0.00 | 0.00 | 0.00 | 33 | 1006.4 |
| 20260510111609 | 51 | 320 | 0.0 | 4.3 | 0.00 | 0.00 | 0.00 | 32 | 1006.3 |
| 20260510110057 | 51 | 332 | 2.6 | 4.3 | 0.00 | 0.00 | 0.00 | 32 | 1006.3 |
| 20260510104610 | 52 | 352 | 2.6 | 7.0 | 0.00 | 0.00 | 0.00 | 32 | 1005.9 |
| 20260510103054 | 52 | 349 | 3.5 | 5.2 | 0.00 | 0.00 | 0.00 | 32 | 1005.8 |
| 20260510101559 | 52 | 354 | 3.5 | 5.2 | 0.00 | 0.00 | 0.00 | 33 | 1005.6 |
| 20260510100059 | 53 | 347 | 2.6 | 5.2 | 0.00 | 0.00 | 0.00 | 33 | 1005.7 |
| 20260510094555 | 53 | 351 | 1.7 | 3.5 | 0.00 | 0.00 | 0.00 | 33 | 1005.6 |
| 20260510093043 | 54 | 328 | 0.9 | 4.3 | 0.00 | 0.00 | 0.00 | 32 | 1005.4 |
| 20260510091542 | 54 | 353 | 2.6 | 8.7 | 0.00 | 0.00 | 0.00 | 32 | 1005.5 |
| 20260510090040 | 55 | 345 | 3.5 | 6.1 | 0.00 | 0.00 | 0.00 | 30 | 1005.3 |
| 20260510084539 | 55 | 333 | 1.7 | 4.3 | 0.00 | 0.00 | 0.00 | 29 | 1005.3 |
| 20260510083042 | 56 | 320 | 0.9 | 6.1 | 0.00 | 0.00 | 0.00 | 29 | 1005.2 |
| 20260510081536 | 55 | 330 | 2.6 | 7.0 | 0.00 | 0.00 | 0.00 | 29 | 1005.2 |
| 20260510080032 | 54 | 340 | 0.0 | 2.6 | 0.00 | 0.00 | 0.00 | 30 | 1005.3 |
| 20260510074537 | 55 | 360 | 0.9 | 4.3 | 0.00 | 0.00 | 0.00 | 29 | 1005.5 |
| 20260510073030 | 54 | 326 | 0.9 | 2.6 | 0.00 | 0.00 | 0.00 | 28 | 1005.6 |
| 20260510071528 | 54 | 345 | 0.0 | 2.6 | 0.00 | 0.00 | 0.00 | 27 | 1005.9 |
| 20260510070032 | 55 | 328 | 0.0 | 2.6 | 0.00 | 0.00 | 0.00 | 26 | 1006.0 |
| 20260510064524 | 54 | 327 | 1.7 | 3.5 | 0.00 | 0.00 | 0.00 | 27 | 1006.1 |
| 20260510063024 | 54 | 303 | 0.0 | 1.7 | 0.00 | 0.00 | 0.00 | 27 | 1006.1 |
| 20260510061520 | 55 | 263 | 0.0 | 2.6 | 0.00 | 0.00 | 0.00 | 25 | 1006.1 |
| 20260510060017 | 55 | 270 | 0.0 | 0.0 | 0.00 | 0.00 | 0.00 | 25 | 1006.4 |
| 20260510054516 | 55 | 221 | 0.0 | 3.5 | 0.00 | 0.00 | 0.00 | 25 | 1006.4 |
| 20260510053015 | 55 | 193 | 0.0 | 5.2 | 0.00 | 0.00 | 0.00 | 25 | 1006.4 |
| 20260510051516 | 55 | 229 | 0.9 | 7.0 | 0.00 | 0.00 | 0.00 | 25 | 1006.4 |
| 20260510050014 | 55 | 207 | 1.7 | 5.2 | 0.00 | 0.00 | 0.00 | 26 | 1006.6 |
| 20260510044514 | 55 | 158 | 2.6 | 8.7 | 0.00 | 0.00 | 0.00 | 26 | 1006.7 |
| 20260510043014 | 55 | 186 | 1.7 | 5.2 | 0.00 | 0.00 | 0.00 | 26 | 1006.7 |
| 20260510041512 | 54 | 194 | 0.0 | 4.3 | 0.00 | 0.00 | 0.00 | 26 | 1006.7 |
| 20260510040012 | 54 | 180 | 0.0 | 3.5 | 0.00 | 0.00 | 0.00 | 27 | 1006.7 |
| 20260510034511 | 55 | 193 | 0.0 | 4.3 | 0.00 | 0.00 | 0.00 | 27 | 1006.8 |
| 20260510033011 | 55 | 191 | 0.0 | 5.2 | 0.00 | 0.00 | 0.00 | 27 | 1006.7 |
| 20260510031511 | 55 | 201 | 0.0 | 2.6 | 0.00 | 0.00 | 0.00 | 27 | 1006.6 |
| 20260510030010 | 55 | 203 | 0.0 | 2.6 | 0.00 | 0.00 | 0.00 | 27 | 1006.5 |
| 20260510024515 | 55 | 191 | 0.0 | 0.9 | 0.00 | 0.00 | 0.00 | 27 | 1006.3 |
| 20260510023009 | 56 | 196 | 0.0 | 0.9 | 0.00 | 0.00 | 0.00 | 27 | 1006.1 |
| 20260510021509 | 56 | 199 | 0.0 | 0.9 | 0.00 | 0.00 | 0.00 | 26 | 1006.0 |
| 20260510020008 | 57 | 194 | 0.0 | 3.5 | 0.00 | 0.00 | 0.00 | 26 | 1005.9 |
| 20260510014510 | 58 | 226 | 0.0 | 0.9 | 0.00 | 0.00 | 0.00 | 25 | 1005.8 |
| 20260510013006 | 60 | 283 | 0.0 | 7.0 | 0.00 | 0.00 | 0.00 | 24 | 1005.7 |
| 20260510011506 | 61 | 325 | 1.7 | 7.8 | 0.00 | 0.00 | 0.00 | 24 | 1005.6 |
| 20260510010005 | 61 | 274 | 1.7 | 11.3 | 0.00 | 0.00 | 0.00 | 23 | 1005.5 |
| 20260510004506 | 62 | 3 | 3.5 | 10.4 | 0.00 | 0.00 | 0.00 | 22 | 1005.6 |
| 20260510003004 | 62 | 285 | 2.6 | 8.7 | 0.00 | 0.00 | 0.00 | 22 | 1005.6 |
| 20260510001505 | 63 | 333 | 1.7 | 13.0 | 0.00 | 0.00 | 0.00 | 22 | 1005.6 |
| 20260510000000 | 63 | 281 | 1.7 | 8.7 | 0.00 | 0.00 | 0.00 | 23 | 1005.5 |
| 20260509234611 | 63 | 269 | 2.6 | 7.8 | 0.00 | 0.00 | 0.00 | 23 | 1005.7 |
| 20260509233059 | 65 | 281 | 2.6 | 8.7 | 0.00 | 0.00 | 0.00 | 22 | 1005.7 |
| 20260509231558 | 65 | 334 | 1.7 | 6.1 | 0.00 | 0.00 | 0.00 | 22 | 1005.8 |
| 20260509230056 | 66 | 300 | 2.6 | 7.8 | 0.00 | 0.00 | 0.00 | 21 | 1005.9 |